Regional Weather Roundup
Issued by NWS

Home | Current Version | Previous Version | Text Only | Print | Product List | Glossary On
Versions: 1 2 3 4 5 6 7 8 9 10 11 12 13 14 15 16 17 18 19 20 21 22 23 24 25 26 27 28 29 30 31 32 33 34 35 36 37 38 39 40 41 42 43 44 45 46 47 48 49 50
000
ASUS43 KIND 270409
RWRIN

WEATHER ROUNDUP FOR INDIANA
NATIONAL WEATHER SERVICE INDIANAPOLIS IN
1200 AM EDT THU JUL 27 2017

NOTE: "FAIR" INDICATES FEW OR NO CLOUDS BELOW 12,000 FEET WITH NO
SIGNIFICANT WEATHER AND/OR OBSTRUCTIONS TO VISIBILITY.

* - STATION DOES NOT REPORT WEATHER SUCH AS PRECIPITATION OR FOG.

+ - STATION NOT QUALITY CONTROLLED BY THE NATIONAL WEATHER SERVICE.
    USE DATA WITH CAUTION...ESPECIALLY DEWPOINT AND RELATIVE
    HUMIDITY OBSERVATIONS.

INZ001>003-010>013-019-020-270500-
NORTHWEST INDIANA

CITY           SKY/WX    TMP DP  RH WIND       PRES   REMARKS
GARY /AIRPORT/ CLOUDY    78  71  79 SE5       29.98S
KNOX *+        CLOUDY    72  70  94 SE5       29.99F
LA PORTE +     CLOUDY    73  70  89 CALM      30.00S
MICHIGAN CITY+ CLOUDY    73  68  83 S3        29.99S
MONTICELLO +   CLOUDY    75  71  87 CALM      29.99S
RENSSELAER +   CLOUDY    73  70  88 E5        29.99S
VALPARAISO     CLOUDY    76  71  85 SE5       30.00S

$$

LMZ046-743>745-270500-
SOUTHERN LAKE MICHIGAN

STATION/POSITION TIME  TEMP    WIND        PRES    WAVE
                       AIR SEA DIR/SP/G            HT
                 (UTC) (F)     (DEG/KT/KT) (MB)    (FT)
BURNS HARBOR     0402   77     170/  8/ 13 1015.2
MICHIGAN CITY    0340   76     140/  7/  9   N/A
5NW MICH CITY    0400   76 75  180/  6/  8   N/A     1

$$

INZ004-005-014>016-021>024-270500-
NORTH CENTRAL INDIANA

CITY           SKY/WX    TMP DP  RH WIND       PRES   REMARKS
GOSHEN         CLOUDY    72  66  81 S3        30.01S
LOGANSPORT +   CLOUDY    72  70  94 SE5       30.01F
PERU/GRISSOM   CLOUDY    74  71  91 SE6       30.00S
ROCHESTER +    FOG       73  70  88 E3        30.01F VSB 1
SOUTH BEND     CLOUDY    75  69  81 SE8       29.99F
WARSAW +       CLOUDY    70  68  94 CALM      30.02S

$$

INZ006>009-017-018-025>027-270500-
NORTHEAST INDIANA

CITY           SKY/WX    TMP DP  RH WIND       PRES   REMARKS
AUBURN +       CLOUDY    72  64  78 CALM      30.03S
FORT WAYNE     CLOUDY    72  67  84 CALM      30.02F
HUNTINGTON +   CLOUDY    73  67  82 CALM      30.02S
KENDALLVILLE + CLOUDY    70  66  88 CALM      30.03S

$$

INZ028-029-035-036-043>045-051>053-270500-
WEST CENTRAL INDIANA

CITY           SKY/WX    TMP DP  RH WIND       PRES   REMARKS
GREENCASTLE +  CLOUDY    73  72  94 CALM      30.00S
LAFAYETTE      CLOUDY    76  73  91 E3        29.97F
TERRE HAUTE    CLOUDY    79  74  84 SW3       29.98S

$$

INZ030>032-037>040-046>048-054>057-064-065-270500-
CENTRAL INDIANA

CITY           SKY/WX    TMP DP  RH WIND       PRES   REMARKS
CP ATTERBURY + MOCLDY    72  70  94 CALM      30.00F
FRANKFORT +    MOCLDY    76  73  92 SE3       30.01F
GREENWOOD *+   CLOUDY   N/A N/A N/A SE6       30.01F
INDIANAPOLIS   CLOUDY    78  71  79 SE7       29.99F
-EAGLE CREEK   MOCLDY    78  71  79 CALM      29.99F
KOKOMO +       CLOUDY    72  70  93 SE5       30.01F
MARION +       CLOUDY    72  68  88 SE5       30.02R
MT COMFORT *+  MOCLDY    73  70  88 SE5       30.02F
SHELBYVILLE    MOCLDY    75  70  84 SE7       30.00F
ZIONSVILLE +   MOCLDY    73  71  94 E3        30.01S

$$

INZ033-034-041-042-049-050-058-059-270500-
EAST CENTRAL INDIANA

CITY           SKY/WX    TMP DP  RH WIND       PRES   REMARKS
MUNCIE         CLOUDY    76  68  76 S5        30.02F
RICHMOND +     PTCLDY    68  66  94 E6        30.04F FOG

$$

INZ060-061-067>069-081>083-085>088-270500-
SOUTHWEST INDIANA

CITY           SKY/WX    TMP DP  RH WIND       PRES   REMARKS
EVANSVILLE     LGT RAIN  78  72  81 W5        30.00S
HUNTINGBURG *+ CLOUDY    74  73  97 CALM      30.01S

$$

INZ062-063-066-070>080-084-089>092-270500-
SOUTH CENTRAL AND SOUTHEAST INDIANA

CITY           SKY/WX    TMP DP  RH WIND       PRES   REMARKS
BLOOMINGTON    CLOUDY    77  70  79 S5        30.00F
MADISON *+     MOCLDY    77  72  83 CALM      30.04S
NORTH VERNON + PTCLDY    73  72  94 CALM      30.02F

$$





USA.gov is the U.S. government's official web portal to all federal, state and local government web resources and services.